Regional Weather Roundup
Issued by NWS Midland/Odessa, TX

Skip options and go directly to product.
Home | Oldest Version | Previous Version | Current Version | All | Text Only | Save Text | Print | Product List | Glossary On

Skip product version selection by date and time.   
614
ASUS44 KMAF 261710
RWRMAF
MIDLAND AREA WEATHER ROUNDUP
NATIONAL WEATHER SERVICE MIDLAND TX
1200 PM CDT SUN APR 26 2015

...IN SOUTHWEST TEXAS AND SOUTHEAST NEW MEXICO...

CITY           SKY/WX    TMP DP  RH WIND       PRES   REMARKS
ALPINE         SUNNY     74  25  16 SW20G31   29.85S
ANDREWS        FAIR      78  28  16 W10G17    29.71F
ARTESIA        MOSUNNY   73  27  17 SW23G38   29.72S
BIG SPRING     MOSUNNY   85  20   9 SW16G23   29.70F
CARLSBAD       MOSUNNY   75  20  12 W14       29.69F
DRYDEN           N/A     87  31  13 W14G21    29.67F
FORT STOCKTON  MOSUNNY   81  30  15 S10       29.71F
GUAD PASS      CLOUDY    65  24  21 SW30G39   29.79F
HOBBS          SUNNY     73  27  17 SW7       29.73F
MARFA          SUNNY     72  28  20 S17G26    29.84F
MIDLAND AIRPK  MOSUNNY   82  24  11 SW15      29.70F
MIDLAND INTL   PTSUNNY   82  26  13 W13       29.71S
ODESSA         PTSUNNY   81  20  10 W16G25    29.71F
PECOS          MOSUNNY   81  28  14 CALM      29.69F
PRESIDIO       FAIR      81  22  11 S8        29.75F
SEMINOLE       PTSUNNY   78  27  15 NW7       29.72F
SNYDER         SUNNY     77  62  59 S12       29.69F
WINK           PTSUNNY   81  18   9 W13       29.67F
$$
...OTHER STATIONS IN TEXAS...

CITY           SKY/WX    TMP DP  RH WIND       PRES   REMARKS
ABILENE        PTSUNNY   74  63  68 VRB6      29.70F
AMARILLO       SUNNY     73  41  31 SE12      29.72F
AUSTIN         CLOUDY    77  70  79 SE9       29.71F
BROWNSVILLE    PTSUNNY   87  77  72 SE8       29.68F
CORPUS CHRISTI CLOUDY    80  76  87 SE12      29.69F FOG
DALLAS FTW     MOSUNNY   80  64  58 S5        29.68F
DEL RIO        SUNNY     85  69  58 SE9       29.65F
EL PASO        CLOUDY    54  37  52 W32G43    29.85R
HOUSTON INT    CLOUDY    77  70  79 E3        29.76S
LUBBOCK        PTSUNNY   78  27  15 SW10      29.70F
SAN ANGELO     MOSUNNY   85  61  44 S16G24    29.66F
SAN ANTONIO    PTSUNNY   81  70  69 SE12      29.70F
WACO           PTSUNNY   74  68  81 SE13      29.72F
WICHITA FALLS  NOT AVBL
$$
...OTHER LOCATIONS IN NEW MEXICO...

CITY           SKY/WX    TMP DP  RH WIND       PRES   REMARKS
ALAMAGORDO     PTSUNNY   52  36  54 W35G45    29.79R HAZE
ALBUQUERQUE    PTSUNNY   50  37  61 CALM      29.76F
CANNON AFB     NOT AVBL
CLOVIS         CLOUDY    70  28  21 W15       29.72F
HOLLOMAN AFB   PTSUNNY   61  32  33 W36G41    29.76R
ROSWELL        CLOUDY    70  22  16 SW22G30   29.69F
RUIDOSO        PTSUNNY   48  28  46 SW23G32   29.82R
SANTA FE       LGT RAIN  36  34  92 E13       29.79F WCI  27
TRUTH OR CONSE CLOUDY    51  37  58 S9        29.77S
TUCUMCARI      CLOUDY    70  20  15 SW17      29.70F
$$

USA.gov is the U.S. government's official web portal to all federal, state and local government web resources and services.